Dauntless Aviation
Airports South America Argentina
SABE
AEP

Jorge Newbery Airpark

Buenos Aires, ARGENTINA

Airport Info
Suggest Updated Information for this Airport

Location

Latitude / Longitude: 34°33'33"S / 58°24'56"W
  34°33.552'S / 58°24.936'W
  -34.5592 / -58.4156

Nearby radio navigation aids

FDO SAN FERNANDO VOR/DME. 132.7° 10.6nm from FDO to field.
OP AEROPARQUE JORGE NEWBERY NDB. 131.1° 4.3nm from OP to field.

Runway Information

Runway 13 /31

Dimensions: 6890 x 131 ft.
Surface: ASP
 
Runway 13
Runway 31
Latitude: -34.553942 -34.563844
Longitude: -58.425247 -58.407506
Elevation: 18 ft. 18 ft.
Runway true heading: 126.3 306.3
 

Instrument Procedures

  Aerodrome Chart

STARs (Standard Terminal Arrivals)

  STAR Rwy 13/16 SARGO7C KOVUK7C TENIL7C BELGRANO7C
  STAR Rwy 13/16 PAGON7C SAN ANTONIO7C ASADA7C VALOS8C
  STAR Rwy 13/16 SURBO7A KUKEN1C PAPIX1C
  STAR Rwy 31 SURBO2B SARGO7D KOVUK7D TENIL7D BELGRANO7D VALOS7D ASADA7D
  STAR Rwy 31 PAGON7D SAN ANTONIO7D

IAPs (Instrument Approach Procedures)

  VOR (DME) ILS Rwy 13
  VOR (DMS) ILS (DME) Rwy 13
  LI ILS (DME) Rwy 13
  VOR (DME) LO LI Rwy 13
  LI LO LI Rwy 13
  LI Rwy 31
  LI Rwy 31

Departure Procedures

  SID Rwy 13/31 LANDA3B VIBAM38 ATOVO38
  SID Rwy 13/31 EZEIZA8
  SID Rwy 13/31 EL PALOMAR 8
  SID Rwy 13/31 KUKEN7 SURBO7 DORVO7 LA PLAYA7
Satellite photo at:
Airport distance calculator
From:
Weather Reports

METAR

TAF

SABE
TAF SABE 201100Z 2012/2112 16010KT 8000 SCT010 SCT100 TX28/2019Z TN16/2109Z BECMG 2014/2016 9999 SCT015 BECMG 2020/2022 09015KT SCT020 SCT050 BECMG 2103/2105 14015KT CAVOK BECMG 2107/2109 18010KT
SADF
10.6nm W
TAF SADF 201100Z 2012/2112 16010KT 9999 BKN010 TX29/2019Z TN17/2109Z BECMG 2015/2017 18015KT SCT015 SCT100 BECMG 2023/2101 11015KT SCT020 FEW040TCU SCT100 BECMG 2103/2105 18010KT CAVOK
SAEZ
16.2nm S
TAF AMD SAEZ 201215Z 2012/2112 15006KT 9999 BKN010 TX30/2019Z TN16/2109Z BECMG 2015/2017 17012KT SCT025 BECMG 2107/2109 14006KT CAVOK
SUCA
32.8nm NE
SUCA 201130Z 2012/2112 17015KT 9999 FEW020 SCT200 TX30/2018Z TN18/2109Z PROB30 TEMPO 2012/2018 8000 SHRA SCT015 BKN070 TEMPO 2100/2112 17015G25KT
Safelog

 

Dauntless Aviation

© 2007-2018 Dauntless Aviation, all rights reserved
Information provided via PilotNav comes from a variety of official and unofficial data sources. As errors are possible, do not use PilotNav for primary flight planning purposes. Verify any information that you receive via PilotNav with current and canonical charts and other official documents. The material in this database is subject to database copyrights held by Dauntless Aviation and may not be copied without the express permission of Dauntless Aviation - licenses for use of part of all of this data are available for purchase; enquire via the Dauntless Aviation helpdesk. A number of mechanisms and markers exist in the database to protect against and identify infringement / copyright. Automated queries against this website are stictly prohibited, and all activity is logged and analyzed.